Regional Weather Roundup
Issued by NWS

Home | Current Version | Previous Version | Text Only | Print | Product List | Glossary On
Versions: 1 2 3 4 5 6 7 8 9 10 11 12 13 14 15 16 17 18 19 20 21 22 23 24 25 26 27 28 29 30 31 32 33 34 35 36 37 38 39 40 41 42 43 44 45 46 47 48 49 50
000
ASUS45 KPSR 190010
RWRAZ

ARIZONA REGIONAL HOURLY WEATHER ROUNDUP
NATIONAL WEATHER SERVICE PHOENIX AZ
500 PM MST FRI APR 18 2014

NOTE: FAIR INDICATES FEW OR NO CLOUDS BELOW 12,000 FEET WITH NO
SIGNIFICANT WEATHER AND/OR OBSTRUCTIONS TO VISIBILITY.

AZZ001>003-036-190100-
NORTHWEST ARIZONA

CITY           SKY/WX    TMP DP  RH WIND       PRES   REMARKS
BULLHEAD CITY  PTSUNNY   84  32  15 S15G23    29.78S
KINGMAN        CLOUDY    72  24  16 SW8       29.91F
6HR MIN TEMP:  67; 6HR MAX TEMP:  77;

$$

AZZ004>008-015-016-018-190100-
NORTH CENTRAL ARIZONA

CITY           SKY/WX    TMP DP  RH WIND       PRES   REMARKS
GRAND CANYON   CLOUDY    55  27  34 SW7       30.09F
6HR MIN TEMP:  55; 6HR MAX TEMP:  61;

WILLIAMS       CLOUDY    50  32  50 SE10      30.16F
PRESCOTT       LGT RAIN  56  40  55 S7        30.05R
6HR MIN TEMP:  56; 6HR MAX TEMP:  67; 6HR PCP: TRACE;

FLAGSTAFF      CLOUDY    48  36  63 S9        30.12R
6HR MIN TEMP:  48; 6HR MAX TEMP:  60; 6HR PCP: TRACE;

PAYSON         CLOUDY    59  36  41 S6        30.09F
PAGE           CLOUDY    72  26  18 S15G25    29.95R
6HR MIN TEMP:  71; 6HR MAX TEMP:  76;

$$

AZZ009>014-017-190100-
NORTHEAST ARIZONA

CITY           SKY/WX    TMP DP  RH WIND       PRES   REMARKS
WINSLOW        CLOUDY    61  35  37 S22G35    30.08R
6HR MIN TEMP:  61; 6HR MAX TEMP:  71;

SAINT JOHNS    CLOUDY    61  33  35 SW17      30.09R
6HR MIN TEMP:  61; 6HR MAX TEMP:  74;

WINDOW ROCK    CLOUDY    64  26  23 SW20G31   30.09R
6HR MIN TEMP:  64; 6HR MAX TEMP:  75;

SHOW LOW       CLOUDY    50  34  53 SW16      30.17S
$$

AZZ023-190100-
GREATER PHOENIX AREA

CITY           SKY/WX    TMP DP  RH WIND       PRES   REMARKS
PHOENIX        CLOUDY    81  38  21 SE13      29.85F
6HR MIN TEMP:  78; 6HR MAX TEMP:  82; 6HR PCP: TRACE;

BUCKEYE          N/A     77  39  25 NW5       29.86S
GLENDALE       CLOUDY    81  41  24 SE12G20   29.87F
LUKE AFB       NOT AVBL
DEER VALLEY    CLOUDY    77 EMP:  79; 6HR PCP: TRACE;

SCOTTSDALE     CLOUDY    78  38  23 SE5       29.89F
6HR MIN TEMP:  74; 6HR MAX TEMP:  79; 6HR PCP: TRACE;

MESA-FALCON    CLOUDY    77  37  24 E6        29.88F
MESA-GATEWAY   CLOUDY    79  36  21 SE7       29.90S
CHANDLER       CLOUDY    79  43  27 E13       29.87F
$$

AZZ027-028-190100-
SOUTHWEST MARICOPA COUNTY AND PINAL COUNTY

CITY           SKY/WX    TMP DP  RH WIND       PRES   REMARKS
CASA GRANDE    CLOUDY    81  37  21 E14       29.88F
6HR MIN TEMP:  75; 6HR MAX TEMP:  81;

GILA BEND      MOCLDY    79  41  25 NW8       29.85S
$$

AZZ503-504-507>509-190100-
SOUTHEAST ARIZONA

CITY           SKY/WX    TMP DP  RH WIND       PRES   REMARKS
TUCSON         CLOUDY    73  42  32 E13       29.95F
6HR MIN TEMP:  73; 6HR MAX TEMP:  77;

DAVIS-MONTHAN  CLOUDY    70  46  42 E16       29.94F
6HR MIN TEMP:  70; 6HR MAX TEMP:  76; 6HR PCP: TRACE;

RYAN FIELD       N/A     75  37  25 E10G20    29.93F
NOGALES        CLOUDY    70  41  34 NE7       29.97F
6HR MIN TEMP:  61; 6HR MAX TEMP:  72; 6HR PCP: TRACE;

SIERRA VISTA   PTSUNNY   59  46  63 VRB3      30.06S
                                      6HR PCP:  0.02;

DOUGLAS        TSTM      57  50  77 W15G36    30.07R
6HR MIN TEMP:  60; 6HR MAX TEMP:  74; 6HR PCP:  0.03;

SAFFORD        CLOUDY    67  44  43 N10       29.99F
6HR MIN TEMP:  64; 6HR MAX TEMP:  79; 6HR PCP: TRACE;

$$

AZZ020-021-025-026-031-190100-
SOUTHWEST ARIZONA

CITY           SKY/WX    TMP DP  RH WIND       PRES   REMARKS
YUMA           CLOUDY    82  42  24 SE12      29.80S
6HR MIN TEMP:  81; 6HR MAX TEMP:  86;

$$

CAZ031-033-041-043-047-048-061-190100-
SOUTHERN CALIFORNIA

CITY           SKY/WX    TMP DP  RH WIND       PRES   REMARKS
DOWNTOWN L.A.  SUNNY     68  53  58 VRB6      29.88S
6HR MIN TEMP:  67; 6HR MAX TEMP:  73;

L.A. AIRPORT   PTSUNNY   65  54  67 W17       29.89S
6HR MIN TEMP:  65; 6HR MAX TEMP:  72;

SAN DIEGO      PTSUNNY   66  52  60 W10       29.90R
6HR MIN TEMP:  64; 6HR MAX TEMP:  68;

BURBANK        SUNNY     67  50  54 S8        29.87S
6HR MIN TEMP:  65; 6HR MAX TEMP:  71;

ONTARIO        PTSUNNY   73  51  46 W16       29.85S
6HR MIN TEMP:  65; 6HR MAX TEMP:  75;

RIVERSIDE      MOSUNNY   71  52  50 W13       29.85S
6HR MIN TEMP:  65; 6HR MAX TEMP:  74;

PALM SPRINGS   PTSUNNY   78  45  30 SW13      29.81R
6HR MIN TEMP:  77; 6HR MAX TEMP:  83; 6HR PCP: TRACE;

EL CENTRO NAS  CLOUDY    83  50  31 E10       29.76F
6HR MIN TEMP:  79; 6HR MAX TEMP:  84;

IMPERIAL       CLOUDY    83  52  34 SE14      29.76S
6HR MIN TEMP:  77; 6HR MAX TEMP:  84;

BLYTHE         CLOUDY    83  40  21 SE13      29.80S
6HR MIN TEMP:  76; 6HR MAX TEMP:  85;

NEEDLES        PTSUNNY   86  30  13 SW13      29.79S
6HR MIN TEMP:  80; 6HR MAX TEMP:  89;

$$

NVZ020-UTZ003-190100-
SOUTHERN NEVADA-UTAH

CITY           SKY/WX    TMP DP  RH WIND       PRES   REMARKS
LAS VEGAS      CLOUDY    79  27  14 S12G23    29.77F
6HR MIN TEMP:  76; 6HR MAX TEMP:  81;

SALT LAKE CITY PTSUNNY   62  40  44 NW9       29.93S
6HR MIN TEMP:  60; 6HR MAX TEMP:  63;

$$

NMZ009-TXZ055-190100-
NEW MEXICO-WEST TEXAS

CITY           SKY/WX    TMP DP  RH WIND       PRES   REMARKS
ALBUQUERQUE    PTSUNNY   75  22  13 S23G35    30.00S
6HR MIN TEMP:  65; 6HR MAX TEMP:  78;

EL PASO        CLOUDY    81  33  17 SE12G22   29.93F
6HR MIN TEMP:  72; 6HR MAX TEMP:  83;

$$


........................KEY........................
SKY/WX - SKY CONDITION/WEATHER
TMP    - TEMPERATURE IN FAHRENHEIT
DP     - DEW POINT IN FAHRENHEIT
RH     - RELATIVE HUMIDITY IN PERCENT
WIND   - DIRECTION AND SPEED IN MILES PER HOUR (MPH)
VRB    - VARIABLE WIND DIRECTION
PRES   - MEAN SEA LEVEL PRESSURE IN INCHES OF MERCURY
         F - FALLING PRESSURE   R - RISING PRESSURE
         S - STEADY PRESSURE
VSB    - VISIBILITY IN MILES
HX     - HEAT INDEX IN FAHRENHEIT
WCI    - WIND CHILL INDEX IN FAHRENHEIT
TC     - TEMPERATURE IN CELSIUS WHICH IS ALSO KNOWN AS
         TEMPERATURE IN CENTIGRADE
AFB    - AIR FORCE BASE
         LUKE AFB IS LUKE AIR FORCE BASE
         DAVIS-MONTHAN IS DAVIS-MONTHAN AIR FORCE BASE
NAS    - NAVAL AIR STATION
         EL CENTRO NAS IS EL CENTRO NAVAL AIR STATION
N/A    - NOT AVAILABLE



USA.gov is the U.S. government's official web portal to all federal, state and local government web resources and services.